Location: Lawrence Hall of Science
(37.8785°N, 122.2415°W)
Time: 16:58:44
(UTC-07:00)

Cosmos 2151 - Visible Passes

Search period start: 21 October 2014 00:00
Search period end: 31 October 2014 00:00
Orbit: 587 x 606 km, 82.5° (Epoch: 20 October)

Date Brightness Start Highest point End Pass type
(mag) Time Alt. Az. Time Alt. Az. Time Alt. Az.
21 Oct 2.8 05:27:57 79° SSW 05:28:13 87° W 05:32:32 10° N visible
22 Oct 3.7 05:39:48 38° NNW 05:39:48 38° NNW 05:42:45 10° N visible
23 Oct 6.1 04:14:32 11° NE 04:14:32 11° NE 04:14:40 10° NE visible
23 Oct 4.7 05:51:17 19° NNW 05:51:17 19° NNW 05:52:47 10° NNW visible
24 Oct 5.3 06:02:31 10° NNW 06:02:31 10° NNW 06:02:34 10° NNW visible
